If you wish to contribute or participate in the discussions about articles you are invited to join SKYbrary as a registered user

 Actions

Jeju

From SKYbrary Wiki

RKPC
Airport
ICAO: RKPC
Summary
Name Jeju
Region Asia and Pacific
Territory South Korea KR.gif
Location Jeju
Serving
Coordinates 33° 30' 26.74" N, 126° 29' 36.32" E
Runways
Designator Length Width Surface ROPS
6/24 3000 m9,842.52 ft <br /> 45 m147.638 ft <br /> ASP no/no
13/31 1910 m6,266.404 ft <br /> 45 m147.638 ft <br /> ASP yes/yes


METAR
Observation RKPC 211900Z 14005KT 110V170 CAVOK 16/07 Q1018 NOSIG
Station Cheju International Airport
Date/Time 21 April 2021 19:00:00
Wind direction 140°
Wind speed 05 kts
Lowest cloud amount clouds and visibility OK
Temperature 16°C
Dew point 7°C
Humidity 55%
QNH 1018 hPa
Weather condition n/a


Jeju International Airport

ICAO: RKPC IATA: CJU

Description

Jeju International Airport serves many mainland destinations in South Korea, as well as international destinations in China, Japan, and Taiwan.

Climatology

Warm continental climate/Humid continental climate/Humid subtropical climate (Köppen climate classification Dwa/Cwa)

Maps

Terrain

Loading map...

Airport Layout

Loading map...


Accidents & Serious Incidents at or in vicinity of RKPC

None on SKYbrary